EW5804 Weather Reports


Display with metric or nautical units.
time (UTC)temp
F
wind
direction
speed
MPH
gust
MPH
rain 1hr
in
rain 24hr
in
rain mn
in
humidity
%
barometer
mb
20260902005325 81 242 0.0 0.0 0.00 0.00 0.00 86 1015.1
20260902004818 81 242 0.0 1.0 0.00 0.00 0.00 86 1015.1
20260902004312 81 243 0.0 1.0 0.00 0.00 0.00 85 1015.1
20260902003806 81 242 0.0 1.0 0.00 0.00 0.00 85 1015.0
20260902003301 82 242 0.0 1.0 0.00 0.00 0.00 85 1015.0
20260902002755 82 242 0.0 0.0 0.00 0.00 0.00 84 1015.0
20260902002248 82 242 0.0 0.0 0.00 0.00 0.00 84 1014.9
20260902002001 82 243 0.0 0.0 0.00 0.00 0.00 83 1014.9
20260902001237 82 242 0.0 0.0 0.00 0.00 0.00 83 1014.9
20260902000730 83 242 0.0 0.0 0.00 0.00 0.00 83 1014.8
20260902000226 83 242 0.0 1.0 0.00 0.00 0.00 83 1014.8
20260901235718 83 242 0.0 1.0 0.00 0.00 0.00 83 1014.8
20260901235707 83 242 0.0 1.0 0.00 0.00 0.00 82 1014.7
20260901234705 84 242 0.0 1.0 0.00 0.00 0.00 82 1014.9
20260901234202 84 242 0.0 1.0 0.00 0.00 0.00 82 1015.0
20260901233654 85 242 0.0 0.0 0.00 0.00 0.00 81 1015.0
20260901233407 85 242 0.0 0.0 0.00 0.00 0.00 81 1015.0
20260901232650 86 242 0.0 1.0 0.00 0.00 0.00 81 1015.1
20260901232150 86 242 0.0 1.0 0.00 0.00 0.00 81 1015.2
20260901231649 86 17 0.0 1.0 0.00 0.00 0.00 81 1015.2
20260901231148 87 17 0.0 0.0 0.00 0.00 0.00 80 1015.3
20260901230643 87 17 0.0 1.0 0.00 0.00 0.00 79 1015.3
20260901230143 88 17 0.0 1.0 0.00 0.00 0.00 78 1015.4
20260901225642 89 17 0.0 0.0 0.00 0.00 0.00 77 1015.5
20260901225619 89 17 0.0 0.0 0.00 0.00 0.00 77 1015.5
20260901224642 89 17 0.0 0.0 0.00 0.00 0.00 77 1015.4
20260901224408 89 17 0.0 1.0 0.00 0.00 0.00 76 1015.5
20260901223856 90 17 0.0 1.0 0.00 0.00 0.00 75 1015.5
20260901223143 91 17 0.0 1.0 0.00 0.00 0.00 73 1015.5
20260901222641 91 17 0.0 0.0 0.00 0.00 0.00 73 1015.5
20260901222358 91 17 0.0 0.0 0.00 0.00 0.00 73 1015.4
20260901221857 91 17 0.0 1.0 0.00 0.00 0.00 74 1015.4
20260901221155 91 18 0.0 1.0 0.00 0.00 0.00 73 1015.4
20260901220915 91 17 0.0 1.0 0.00 0.00 0.00 73 1015.4
20260901220139 91 17 0.0 1.0 0.00 0.00 0.00 72 1015.4
20260901215903 91 17 0.0 0.0 0.00 0.00 0.00 74 1015.3
20260901215153 91 17 0.0 1.0 0.00 0.00 0.00 74 1015.3
20260901214903 91 17 0.0 1.0 0.00 0.00 0.00 73 1015.4
20260901214142 91 17 0.0 1.0 0.00 0.00 0.00 73 1015.4
20260901213637 92 7 0.0 1.0 0.00 0.00 0.00 71 1015.5
20260901213140 92 7 1.0 3.0 0.00 0.00 0.00 69 1015.4
20260901212857 93 7 1.0 3.0 0.00 0.00 0.00 69 1015.5
20260901212141 93 1 1.0 3.0 0.00 0.00 0.00 70 1015.6
20260901211640 93 1 2.0 4.0 0.00 0.00 0.00 65 1015.6
20260901211142 92 33 1.0 4.0 0.00 0.00 0.00 64 1015.6
20260901210639 93 66 0.0 1.0 0.00 0.00 0.00 71 1015.6
20260901210137 93 66 1.0 3.0 0.00 0.00 0.00 68 1015.5
20260901205648 93 64 3.0 8.0 0.00 0.00 0.00 65 1015.5
20260901205138 92 78 3.0 8.0 0.00 0.00 0.00 67 1015.5
20260901204628 93 39 1.0 4.0 0.00 0.00 0.00 71 1015.6
20260901204124 93 170 1.0 2.0 0.00 0.00 0.00 71 1015.4
20260901203617 93 172 2.0 5.0 0.00 0.00 0.00 70 1015.4
20260901203111 93 172 1.0 5.0 0.00 0.01 0.00 68 1015.4
20260901202603 93 215 1.0 5.0 0.00 0.01 0.00 69 1015.3
20260901202537 93 174 1.0 5.0 0.00 0.01 0.00 67 1015.3
20260901201553 92 188 1.0 3.0 0.00 0.02 0.00 69 1015.3
20260901201045 93 258 1.0 3.0 0.00 0.04 0.00 69 1015.4
20260901200820 93 214 2.0 5.0 0.00 0.05 0.00 71 1015.5
20260901200047 93 205 2.0 5.0 0.00 0.09 0.00 64 1015.4
20260901195526 93 296 2.0 5.0 0.00 0.21 0.00 61 1015.6
20260901195022 93 185 2.0 5.0 0.00 0.43 0.00 62 1015.7
20260901194515 94 187 1.0 3.0 0.00 0.63 0.00 70 1015.6
20260901194019 93 185 1.0 3.0 0.00 0.67 0.00 67 1015.7
20260901193503 93 186 1.0 5.0 0.00 0.67 0.00 64 1015.8
20260901192957 93 184 1.0 5.0 0.00 0.68 0.00 69 1015.8
20260901192716 93 137 1.0 3.0 0.00 0.68 0.00 70 1015.7
20260901191945 93 195 2.0 5.0 0.00 0.69 0.00 68 1015.8
20260901191439 93 140 2.0 6.0 0.00 0.77 0.00 65 1015.8
20260901191159 94 186 2.0 6.0 0.00 0.90 0.00 68 1015.9
20260901190427 94 205 2.0 5.0 0.00 1.02 0.00 62 1015.8
20260901185921 93 185 1.0 4.0 0.00 1.16 0.00 64 1016.0
20260901185420 93 286 1.0 2.0 0.00 1.22 0.00 66 1016.1
20260901185129 93 285 2.0 5.0 0.00 1.22 0.00 67 1016.1
20260901184402 93 284 3.0 5.0 0.00 1.22 0.00 63 1016.1
20260901183857 93 314 2.0 5.0 0.00 1.22 0.00 62 1016.2
20260901183350 94 286 1.0 4.0 0.00 1.22 0.00 64 1016.3
20260901182847 94 300 2.0 5.0 0.00 1.22 0.00 65 1016.4
20260901182338 93 207 2.0 6.0 0.00 1.22 0.00 64 1016.3
20260901181838 94 190 2.0 6.0 0.00 1.22 0.00 63 1016.4
20260901181813 93 174 1.0 4.0 0.00 1.22 0.00 63 1016.4
20260901180821 93 127 1.0 4.0 0.00 1.22 0.00 63 1016.4
20260901180327 93 180 2.0 5.0 0.00 1.22 0.00 65 1016.4
20260901175809 93 284 3.0 9.0 0.00 1.22 0.00 64 1016.6
20260901175316 93 286 3.0 9.0 0.00 1.22 0.00 63 1016.6
20260901174800 93 258 2.0 6.0 0.00 1.22 0.00 63 1016.5
20260901174251 93 265 2.0 6.0 0.00 1.22 0.00 64 1016.5
20260901174010 93 159 1.0 5.0 0.00 1.22 0.00 65 1016.6
20260901173254 93 211 1.0 3.0 0.00 1.22 0.00 67 1016.6
20260901172733 94 211 2.0 4.0 0.00 1.22 0.00 64 1016.6
20260901172712 93 155 2.0 6.0 0.00 1.22 0.00 65 1016.6
20260901171722 93 274 1.0 6.0 0.00 1.22 0.00 67 1016.6
20260901171215 93 223 1.0 3.0 0.00 1.22 0.00 65 1016.5
20260901170711 94 273 1.0 3.0 0.00 1.22 0.00 67 1016.6
20260901170427 93 194 1.0 3.0 0.00 1.22 0.00 68 1016.6
20260901165659 93 187 1.0 3.0 0.00 1.22 0.00 67 1016.6
20260901165150 92 186 1.0 3.0 0.00 1.22 0.00 65 1016.8
20260901164909 92 199 2.0 5.0 0.00 1.22 0.00 67 1016.9
20260901164144 92 199 2.0 5.0 0.00 1.22 0.00 70 1016.8
20260901163643 91 296 2.0 6.0 0.00 1.22 0.00 71 1016.9
20260901163143 91 32 2.0 7.0 0.00 1.22 0.00 68 1017.0
20260901163118 92 336 2.0 7.0 0.00 1.22 0.00 68 1017.1
20260901162140 92 315 1.0 3.0 0.00 1.22 0.00 71 1017.2
20260901161902 91 278 1.0 3.0 0.00 1.22 0.00 71 1017.2
20260901161143 91 273 1.0 3.0 0.00 1.22 0.00 69 1017.4
20260901160642 90 273 1.0 4.0 0.00 1.22 0.00 72 1017.3
20260901160141 90 282 2.0 5.0 0.00 1.22 0.00 69 1017.4
20260901155641 90 321 3.0 8.0 0.00 1.22 0.00 67 1017.6
20260901155139 90 294 2.0 8.0 0.00 1.22 0.00 68 1017.6
20260901154640 90 271 2.0 5.0 0.00 1.22 0.00 72 1017.6
20260901154139 90 332 1.0 5.0 0.00 1.22 0.00 71 1017.6
20260901154104 90 230 1.0 3.0 0.00 1.22 0.00 72 1017.6
20260901153729 90 228 0.0 2.0 0.00 1.22 0.00 71 1017.6
20260901152906 89 230 1.0 3.0 0.00 1.22 0.00 70 1017.7
20260901152150 90 222 1.0 3.0 0.00 1.22 0.00 76 1017.6
20260901151640 89 235 1.0 3.0 0.00 1.22 0.00 75 1017.7
20260901151133 88 213 1.0 3.0 0.00 1.22 0.00 75 1017.8
20260901150827 87 207 2.0 4.0 0.00 1.22 0.00 75 1017.9
20260901150716 87 249 1.0 3.0 0.00 1.22 0.00 75 1017.9
20260901145615 86 215 2.0 4.0 0.00 1.22 0.00 76 1017.9
20260901145109 86 261 1.0 4.0 0.00 1.22 0.00 75 1017.9
20260901144616 86 263 1.0 3.0 0.00 1.22 0.00 78 1017.9
20260901144056 85 278 2.0 3.0 0.00 1.22 0.00 77 1017.9
20260901143552 85 288 1.0 3.0 0.00 1.22 0.00 76 1018.1
20260901143057 85 274 1.0 3.0 0.00 1.22 0.00 77 1018.0
20260901142541 84 271 1.0 4.0 0.00 1.22 0.00 78 1017.9
20260901142043 84 274 1.0 4.0 0.00 1.22 0.00 78 1018.0
20260901141540 84 274 0.0 3.0 0.00 1.22 0.00 79 1018.0
20260901141041 84 274 0.0 2.0 0.00 1.22 0.00 79 1018.0
20260901140807 84 270 0.0 3.0 0.00 1.22 0.00 79 1017.9
20260901140040 84 252 0.0 3.0 0.00 1.22 0.00 80 1017.9
20260901135539 83 253 1.0 3.0 0.00 1.22 0.00 81 1017.9
20260901135036 83 251 1.0 3.0 0.00 1.22 0.00 82 1017.9
20260901134537 83 237 1.0 4.0 0.00 1.22 0.00 82 1017.9
20260901134302 82 230 2.0 4.0 0.00 1.22 0.00 82 1017.8
20260901134013 82 260 2.0 6.0 0.00 1.22 0.00 85 1017.9
20260901133037 81 251 3.0 6.0 0.00 1.22 0.00 85 1018.0
20260901132536 80 292 3.0 6.0 0.00 1.22 0.00 85 1017.9
20260901132037 80 240 2.0 7.0 0.00 1.22 0.00 88 1018.0
20260901131538 79 246 2.0 7.0 0.00 1.22 0.00 89 1017.9
20260901131036 79 278 2.0 4.0 0.00 1.22 0.00 90 1017.8
20260901130537 78 276 2.0 6.0 0.00 1.22 0.00 91 1017.8
20260901130032 78 302 2.0 6.0 0.00 1.22 0.00 92 1018.0
20260901125532 78 247 2.0 6.0 0.00 1.22 0.00 92 1018.2
20260901125516 78 257 1.0 4.0 0.00 1.22 0.00 93 1018.1
20260901124532 78 211 1.0 4.0 0.00 1.22 0.00 93 1017.9
20260901124508 77 213 0.0 2.0 0.00 1.22 0.00 93 1018.2
20260901123543 77 213 1.0 3.0 0.00 1.22 0.00 93 1018.1
20260901123032 77 213 0.0 3.0 0.00 1.22 0.00 93 1018.1
20260901122531 76 268 0.0 2.0 0.00 1.22 0.00 93 1018.2
20260901122031 76 267 1.0 2.0 0.00 1.22 0.00 93 1018.1
20260901121531 76 266 0.0 2.0 0.00 1.22 0.00 93 1017.9
20260901121032 75 55 0.0 1.0 0.00 1.22 0.00 93 1017.8
20260901120543 75 62 0.0 1.0 0.00 1.22 0.00 93 1017.7
20260901120030 74 62 0.0 2.0 0.00 1.22 0.00 93 1017.8
20260901115531 74 62 0.0 2.0 0.00 1.22 0.00 93 1017.8
20260901115251 74 62 0.0 0.0 0.00 1.22 0.00 93 1017.8
20260901114531 74 61 0.0 0.0 0.00 1.22 0.00 93 1017.7
20260901114030 74 61 0.0 0.0 0.00 1.22 0.00 93 1017.6
20260901113529 74 62 0.0 0.0 0.00 1.22 0.00 93 1017.6
20260901113024 73 62 0.0 0.0 0.00 1.22 0.00 93 1017.7
20260901112521 73 62 0.0 0.0 0.00 1.22 0.00 93 1017.6
20260901112013 73 62 0.0 0.0 0.00 1.22 0.00 93 1017.6
20260901111948 72 61 0.0 0.0 0.00 1.22 0.00 92 1017.4
20260901111000 72 62 0.0 0.0 0.00 1.22 0.00 92 1017.4
20260901110454 72 61 0.0 0.0 0.00 1.22 0.00 92 1017.4
20260901105949 72 62 0.0 0.0 0.00 1.22 0.00 92 1017.4
20260901105701 72 62 0.0 0.0 0.00 1.22 0.00 92 1017.5
20260901104935 72 62 0.0 0.0 0.00 1.22 0.00 92 1017.4
20260901104430 72 62 0.0 0.0 0.00 1.22 0.00 92 1017.4
20260901104402 72 62 0.0 0.0 0.00 1.22 0.00 92 1017.4
20260901103417 72 62 0.0 0.0 0.00 1.22 0.00 92 1017.4
20260901102912 72 62 0.0 0.0 0.00 1.22 0.00 92 1017.4
20260901102632 72 62 0.0 0.0 0.00 1.22 0.00 92 1017.4
20260901101900 72 62 0.0 0.0 0.00 1.22 0.00 92 1017.3
20260901101353 72 61 0.0 0.0 0.00 1.22 0.00 92 1017.2
20260901100848 72 62 0.0 0.0 0.00 1.22 0.00 92 1017.1
20260901100342 72 62 0.0 0.0 0.00 1.22 0.00 92 1017.1
20260901095850 72 62 0.0 0.0 0.00 1.22 0.00 92 1017.1
20260901095345 72 61 0.0 0.0 0.00 1.22 0.00 92 1017.2
20260901095044 72 62 0.0 0.0 0.00 1.22 0.00 92 1017.1
20260901094319 72 62 0.0 0.0 0.00 1.22 0.00 92 1017.1
20260901093812 72 62 0.0 0.0 0.00 1.22 0.00 92 1017.1
20260901093320 72 62 0.0 0.0 0.00 1.22 0.00 92 1017.0
20260901092800 72 61 0.0 0.0 0.00 1.22 0.00 92 1017.1
20260901092253 72 62 0.0 0.0 0.00 1.22 0.00 92 1017.1
20260901091801 72 62 0.0 0.0 0.00 1.22 0.00 92 1017.1
20260901091242 72 62 0.0 0.0 0.00 1.22 0.00 92 1017.1
20260901090736 72 61 0.0 0.0 0.00 1.22 0.00 92 1017.2
20260901090231 72 62 0.0 0.0 0.00 1.22 0.00 92 1017.3
20260901085723 72 55 0.0 0.0 0.00 1.22 0.00 92 1017.3
20260901085440 72 61 0.0 0.0 0.00 1.22 0.00 92 1017.2
20260901084712 72 62 0.0 0.0 0.00 1.22 0.00 92 1017.2
20260901084207 72 62 0.0 0.0 0.00 1.22 0.00 92 1017.3
20260901083700 73 62 0.0 0.0 0.00 1.22 0.00 92 1017.2
20260901083155 72 62 0.0 0.0 0.00 1.22 0.00 92 1017.3
20260901082648 73 62 0.0 0.0 0.00 1.22 0.00 92 1017.3
20260901082141 73 62 0.0 0.0 0.00 1.22 0.00 92 1017.3
20260901081636 73 62 0.0 0.0 0.00 1.22 0.00 92 1017.2
20260901081143 73 62 0.0 0.0 0.00 1.22 0.00 92 1017.3
20260901080842 73 62 0.0 0.0 0.00 1.22 0.00 92 1017.5
20260901080559 73 55 0.0 0.0 0.00 1.22 0.00 92 1017.5
20260901075616 73 56 0.0 0.0 0.00 1.22 0.00 92 1017.6
20260901075119 73 56 0.0 0.0 0.00 1.22 0.00 92 1017.6
20260901074614 73 55 0.0 0.0 0.00 1.22 0.00 92 1017.5
20260901074115 73 55 0.0 0.0 0.00 1.22 0.00 92 1017.5
20260901073614 73 56 0.0 0.0 0.00 1.22 0.00 92 1017.6
20260901073112 73 55 0.0 0.0 0.00 1.22 0.00 92 1017.6
20260901072629 73 55 0.0 0.0 0.00 1.22 0.00 92 1017.6
20260901072113 73 55 0.0 0.0 0.00 1.22 0.00 92 1017.6
20260901071612 73 55 0.0 0.0 0.00 1.22 0.00 92 1017.6
20260901071113 73 56 0.0 0.0 0.00 1.22 0.00 92 1017.6
20260901070613 73 55 0.0 0.0 0.00 1.22 0.00 92 1017.7
20260901070118 73 56 0.0 0.0 0.00 1.22 0.00 92 1017.7
20260901065610 73 56 0.0 0.0 0.00 1.22 0.00 92 1017.7
20260901064834 73 55 0.0 0.0 0.00 1.22 0.00 92 1017.8
20260901064334 73 55 0.0 0.0 0.00 1.22 0.00 92 1017.9
20260901063610 73 55 0.0 0.0 0.00 1.22 0.00 92 1017.9
20260901063111 73 57 0.0 0.0 0.00 1.22 0.00 92 1018.1
20260901062603 73 55 0.0 0.0 0.00 1.22 0.00 92 1018.3
20260901062100 73 55 0.0 0.0 0.00 1.22 0.00 92 1018.4
20260901061553 73 55 0.0 0.0 0.00 1.22 0.00 92 1018.4
20260901061046 73 56 0.0 0.0 0.00 1.22 0.00 92 1018.4
20260901060554 73 55 0.0 0.0 0.00 1.22 0.00 92 1018.4
20260901060256 73 55 0.0 0.0 0.00 1.22 0.00 92 1018.5
20260901055532 73 56 0.0 0.0 0.00 1.22 0.00 92 1018.5
20260901055033 73 55 0.0 0.0 0.00 1.22 0.00 92 1018.7
20260901054532 73 56 0.0 0.0 0.00 1.22 0.00 92 1018.8
20260901054032 73 55 0.0 0.0 0.00 1.22 0.00 92 1018.8
20260901053530 73 55 0.0 0.0 0.00 1.22 0.00 92 1018.8
20260901053236 73 50 0.0 0.0 0.00 1.22 0.00 92 1018.6
20260901053121 73 56 0.0 0.0 0.00 1.22 0.00 92 1018.8
20260901052247 73 56 0.0 0.0 0.00 1.22 0.00 92 1018.6
20260901051527 73 55 0.0 0.0 0.00 1.22 0.00 92 1018.6
20260901050904 73 55 0.0 0.0 0.00 1.22 0.00 92 1018.6
20260901050404 73 56 0.0 0.0 0.00 1.22 0.00 92 1018.5
20260901045903 74 55 0.0 0.0 0.00 1.22 0.00 92 1018.4
20260901045404 74 56 0.0 0.0 0.00 1.22 0.00 92 1018.4
20260901044901 74 55 0.0 0.0 0.00 1.22 0.00 92 1018.5
20260901044400 74 55 0.0 0.0 0.00 1.22 0.00 92 1018.5
20260901044114 74 57 0.0 1.0 0.00 1.22 0.00 91 1018.5
20260901043359 74 56 0.0 1.0 0.00 1.22 0.00 91 1018.6
20260901042858 74 55 0.0 0.0 0.00 1.22 0.00 91 1018.7
20260901042616 74 55 0.0 1.0 0.00 1.22 0.00 91 1018.6
20260901042120 74 55 0.0 1.0 0.00 1.22 0.00 91 1018.6
20260901041622 74 56 0.0 1.0 0.00 1.22 0.00 91 1018.6
20260901040855 74 56 0.0 1.0 0.00 1.22 0.00 91 1018.6
20260901040356 74 55 0.0 1.0 0.00 1.22 0.00 91 1018.6
20260901035855 74 55 0.0 0.0 0.00 1.22 1.22 91 1018.6
20260901035349 74 55 0.0 0.0 0.00 1.22 1.22 91 1018.6
20260901034844 74 55 0.0 0.0 0.00 1.22 1.22 91 1018.6
20260901034536 74 55 0.0 1.0 0.00 1.22 1.22 91 1018.6
20260901034427 74 57 0.0 0.0 0.00 1.22 1.22 91 1018.6
20260901033327 74 55 0.0 1.0 0.00 1.22 1.22 91 1018.7
20260901032821 74 55 1.0 1.0 0.00 1.22 1.22 91 1018.6
20260901032314 74 55 1.0 1.0 0.00 1.22 1.22 91 1018.7
20260901031808 74 55 0.0 1.0 0.00 1.22 1.22 91 1018.5
20260901031523 74 55 0.0 2.0 0.00 1.22 1.22 91 1018.5
20260901030807 74 55 1.0 2.0 0.00 1.22 1.22 91 1018.6
20260901030300 74 55 0.0 2.0 0.00 1.22 1.22 91 1018.6
20260901025745 74 64 0.0 0.0 0.00 1.22 1.22 91 1018.5
20260901025239 74 64 0.0 0.0 0.00 1.22 1.22 91 1018.4
20260901024745 74 64 0.0 0.0 0.00 1.22 1.22 91 1018.5
20260901024230 75 65 0.0 0.0 0.00 1.22 1.22 91 1018.5
20260901023719 75 64 0.0 1.0 0.00 1.22 1.22 91 1018.5
20260901023214 75 64 0.0 1.0 0.00 1.22 1.22 91 1018.5
20260901022709 75 64 0.0 0.0 0.00 1.22 1.22 91 1018.6
20260901022204 75 64 0.0 0.0 0.00 1.22 1.22 91 1018.5
20260901021919 75 64 0.0 1.0 0.00 1.22 1.22 91 1018.6
20260901021203 75 64 0.0 1.0 0.00 1.22 1.22 91 1018.6
20260901020657 75 64 0.0 0.0 0.00 1.22 1.22 91 1018.7
20260901020143 75 64 0.0 0.0 0.00 1.22 1.22 91 1018.7
20260901015638 75 64 0.0 1.0 0.00 1.22 1.22 91 1018.7
20260901015128 75 64 1.0 1.0 0.00 1.22 1.22 91 1018.7
20260901014634 76 64 0.0 2.0 0.00 1.22 1.22 91 1018.7
20260901014115 76 64 1.0 3.0 0.00 1.22 1.22 91 1018.7
20260901013828 76 64 2.0 3.0 0.00 1.22 1.22 91 1018.6
20260901013103 76 16 1.0 3.0 0.00 1.22 1.22 91 1018.7
20260901012555 76 323 1.0 3.0 0.00 1.22 1.22 91 1018.8
20260901012050 76 179 1.0 5.0 0.00 1.22 1.22 91 1018.6
20260901011544 76 325 2.0 5.0 0.00 1.22 1.22 90 1018.6
20260901011039 76 276 1.0 3.0 0.00 1.22 1.22 90 1018.5
20260901010753 76 275 0.0 1.0 0.00 1.22 1.22 90 1018.3
20260901010028 76 276 0.0 1.0 0.00 1.22 1.22 90 1018.3